Weather History for Cedar Rapids, IA

Change the Weather History Date:

Friday, September 27, 2013

  Actual Average Record
Temperature  
Mean Temperature 70 °F 58 °F  
Max Temperature 84 °F 70 °F 91 °F (1905)
Min Temperature 55 °F 46 °F 31 °F (1942)
Degree Days  
Heating Degree Days 0 8  
Month to date heating degree days 64 112  
Since 1 July heating degree days 83 131  
Cooling Degree Days 5 1  
Month to date cooling degree days 145 69  
Year to date cooling degree days 865 737  
Growing Degree Days 18 (Base 50)    
Moisture  
Dew Point 56 °F    
Average Humidity 67    
Maximum Humidity 93    
Minimum Humidity 40    
Precipitation  
Precipitation 0.00 in 0.09 in 0.67 in (1999)
Month to date precipitation 1.80 2.89  
Year to date precipitation 31.20 28.19  
Sea Level Pressure  
Sea Level Pressure 29.99 in    
Wind  
Wind Speed 9 mph (SE)    
Max Wind Speed 17 mph    
Max Gust Speed 25 mph    
Visibility 9 miles    
Events      
T = Trace of Precipitation, MM = Missing Value Source: NWS Daily Summary

Daily Weather History Graph

Daily Weather History Graph

Search for Another Location

Airport:

Trip Planner

Search our weather history database for the weather conditions in past years. The results will help you decide how hot, cold, wet, or windy it might be!

Date:

Astronomy

Sep. 27, 2013 Rise Set
Actual Time 6:59 AM CDT 6:54 PM CDT
Civil Twilight 6:31 AM CDT 7:22 PM CDT
Nautical Twilight 5:59 AM CDT 7:54 PM CDT
Astronomical Twilight 5:26 AM CDT 8:27 PM CDT
Moon No Moon Rise 2:38 PM CDT (9/27)
Length of Visible Light 12h 50m
Length of Day
11h 55m
Last Quarter, 45% of the Moon is Illuminated
Sep 27
Last Quarter
Oct 4
New
Oct 11
First Quarter
Oct 18
Full
Oct 26
Last Quarter

Hourly Weather History & Observations

Time (CDT) Temp. Heat Index Dew Point Humidity Pressure Visibility Wind Dir Wind Speed Gust Speed Precip Events Conditions
12:52 AM 64.0 °F - 55.9 °F 75% 29.98 in 10.0 mi ESE 6.9 mph - N/A   Clear
1:52 AM 64.0 °F - 55.9 °F 75% 30.01 in 10.0 mi SE 5.8 mph - N/A   Clear
2:52 AM 63.0 °F - 55.0 °F 75% 30.01 in 10.0 mi SE 4.6 mph - N/A   Clear
3:52 AM 60.1 °F - 55.0 °F 83% 30.01 in 8.0 mi ESE 6.9 mph - N/A   Clear
4:52 AM 55.9 °F - 53.1 °F 90% 30.01 in 7.0 mi ESE 5.8 mph - N/A   Clear
5:52 AM 55.0 °F - 52.0 °F 89% 30.03 in 6.0 mi ESE 4.6 mph - N/A   Clear
6:52 AM 55.9 °F - 52.0 °F 87% 30.04 in 6.0 mi East 5.8 mph - N/A   Clear
7:52 AM 62.1 °F - 54.0 °F 75% 30.04 in 7.0 mi SE 9.2 mph - N/A   Clear
8:52 AM 66.0 °F - 55.9 °F 70% 30.05 in 9.0 mi SE 9.2 mph - N/A   Clear
9:52 AM 70.0 °F - 57.9 °F 65% 30.05 in 9.0 mi SSE 10.4 mph - N/A   Clear
10:52 AM 73.9 °F - 60.1 °F 62% 30.04 in 10.0 mi South 11.5 mph 19.6 mph N/A   Clear
11:52 AM 78.1 °F - 62.1 °F 58% 30.03 in 10.0 mi SSE 12.7 mph 19.6 mph N/A   Clear
12:52 PM 81.0 °F 81.6 °F 60.1 °F 49% 30.01 in 10.0 mi SSE 12.7 mph 20.7 mph N/A   Partly Cloudy
1:52 PM 80.1 °F 80.9 °F 60.1 °F 50% 29.99 in 10.0 mi SSE 12.7 mph 23.0 mph N/A   Scattered Clouds
2:52 PM 82.0 °F 82.1 °F 59.0 °F 45% 29.96 in 10.0 mi SSE 10.4 mph 24.2 mph N/A   Scattered Clouds
3:52 PM 82.9 °F 82.8 °F 59.0 °F 44% 29.95 in 10.0 mi South 12.7 mph 20.7 mph N/A   Partly Cloudy
4:52 PM 82.0 °F 81.6 °F 55.9 °F 41% 29.94 in 10.0 mi SE 13.8 mph 23.0 mph N/A   Clear
5:52 PM 80.1 °F 80.1 °F 55.0 °F 42% 29.94 in 10.0 mi SSE 11.5 mph 19.6 mph N/A   Clear
6:52 PM 75.0 °F - 55.0 °F 50% 29.94 in 9.0 mi SE 6.9 mph - N/A   Clear
7:52 PM 72.0 °F - 55.9 °F 57% 29.95 in 10.0 mi SE 9.2 mph - N/A   Clear
8:52 PM 71.1 °F - 53.1 °F 53% 29.96 in 10.0 mi SE 8.1 mph - N/A   Clear
9:52 PM 70.0 °F - 52.0 °F 53% 29.95 in 10.0 mi SSE 10.4 mph - N/A   Clear
10:52 PM 69.1 °F - 52.0 °F 54% 29.95 in 10.0 mi SSE 10.4 mph - N/A   Clear
11:52 PM 66.9 °F - 53.1 °F 61% 29.95 in 10.0 mi SSE 8.1 mph - N/A   Clear